Location: Almena City Lake
(39.8850°N, 99.6804°W)
Time: 20:49:33
(UTC+00:00)

Cosmos 1633 - Pass Details

Date: 18 February 2020
Orbit: 464 x 482 km, 82.5° (Epoch: 03 April)

Event Time Altitude Azimuth Distance (km) Brightness Sun altitude
Rises 01:28:26 0° 200° (SSW) 2,496 6.5 -14.4°
Reaches altitude 10° 01:30:34 10° 207° (SSW) 1,628 5.6 -14.8°
Maximum altitude 01:33:58 43° 280° (W) 674 3.8 -15.4°
Drops below altitude 10° 01:37:26 10° 354° (N) 1,652 5.3 -16.1°
Sets 01:39:36 0° 1° (N) 2,539 6.2 -16.5°
